This demonstration page uses our WeatherBlox Daily Observations layout. Learn more.

36.17497, -115.13722

Hourly Observations for October 27, 2018

Temp ( °F °C ) Dew Point ( °F °C ) Humidity (%) Winds ( mph kmh ) Pressure ( in mb ) Visibility ( mi km ) Precip ( " mm )
12:53 am 00:53 Clear 61 16.1 36 2.2 39 39 N 5 7 30.09 1019 10 16.09344 0 0
1:53 am 01:53 Clear 60 15.6 37 2.8 42 42 NW 6 9 30.09 1019 10 16.09344 0 0
2:53 am 02:53 Clear 58 14.4 37 2.8 46 46 NW 5 7 30.09 1019 10 16.09344 0 0
3:53 am 03:53 Clear 58 14.4 37 2.8 46 46 NW 6 9 30.06 1018 10 16.09344 0 0
4:53 am 04:53 Clear 58 14.4 33 0.6 39 39 NNW 5 7 30.06 1018 10 16.09344 0 0
5:53 am 05:53 Clear 58 14.4 36 2.2 44 44 NW 3 6 30.09 1019 10 16.09344 0 0
6:53 am 06:53 Clear 55 12.8 37 2.8 51 51 NW 6 9 30.09 1019 10 16.09344 0 0
7:53 am 07:53 Sunny 58 14.4 38 3.3 48 48 NW 5 7 30.12 1020 10 16.09344 0 0
8:53 am 08:53 Sunny 64 17.8 37 2.8 37 37 Calm 30.12 1020 10 16.09344 0 0
9:53 am 09:53 Sunny 68 20 36 2.2 31 31 SSE 3 6 30.12 1020 10 16.09344 0 0
10:53 am 10:53 Sunny 72 22.2 33 0.6 24 24 Calm 30.12 1020 10 16.09344 0 0
11:53 am 11:53 Sunny 75 23.9 32 0 21 21 Calm 30.09 1019 10 16.09344 0 0
12:53 pm 12:53 Sunny 78 25.6 32 0 19 19 ESE 6 9 30.06 1018 10 16.09344 0 0
1:53 pm 13:53 Sunny 81 27.2 33 0.6 18 18 N 5 7 30.03 1017 10 16.09344 0 0
2:53 pm 14:53 Sunny 82 27.8 32 0 16 16 N 3 6 30.03 1017 10 16.09344 0 0
3:53 pm 15:53 Sunny 83 28.3 31 -0.6 15 15 ENE 3 6 30 1016 10 16.09344 0 0
4:53 pm 16:53 Sunny 81 27.2 31 -0.6 16 16 SSE 6 9 30 1016 10 16.09344 0 0
5:53 pm 17:53 Clear 79 26.1 32 0 18 18 S 3 6 30 1016 10 16.09344 0 0
6:53 pm 18:53 Clear 76 24.4 35 1.7 23 23 S 5 7 30.03 1017 10 16.09344 0 0
7:53 pm 19:53 Clear 70 21.1 37 2.8 30 30 NNW 6 9 30.06 1018 10 16.09344 0 0
8:53 pm 20:53 Clear 68 20 36 2.2 31 31 NW 6 9 30.06 1018 10 16.09344 0 0
9:53 pm 21:53 Clear 66 18.9 37 2.8 34 34 WNW 5 7 30.06 1018 10 16.09344 0 0
10:53 pm 22:53 Clear 65 18.3 37 2.8 36 36 NW 6 9 30.06 1018 10 16.09344 0 0
11:53 pm 23:53 Clear 62 16.7 37 2.8 40 40 NNW 6 9 30.06 1018 10 16.09344 0 0

Powered by AerisWeather